Location: Albuquerque Trailhead
(34.7934°N, 106.3736°W)
Time: 22:59:27
(UTC+00:00)

NOAA 19 - Pass Details

Date: 03 April 2023
Orbit: 840 x 859 km, 99.1° (Epoch: 28 May)

Event Time Altitude Azimuth Distance (km) Brightness Sun altitude
Exits shadow 02:42:55 15° 149° (SSE) 2,120 6.8 -15.9°
Maximum altitude 02:47:23 59° 73° (ENE) 967 5.2 -16.8°
Drops below altitude 10° 02:52:44 10° 355° (N) 2,467 7.9 -17.8°
Sets 02:55:08 0° 352° (N) 3,404 8.7 -18.3°
